This demonstration page uses our WeatherBlox Daily Observations layout. Learn more.

Left ArrowRight Arrow

34.16533, -84.80231

Hourly Observations for July 26, 2020

Temp ( °F °C ) Dew Point ( °F °C ) Humidity (%) Winds ( mph kmh ) Pressure ( in mb ) Visibility ( mi km ) Precip ( " mm )
12:10 am 00:10 Mostly Cloudy 72 22.2 70 21.1 94 94 Calm 30.18 1022 10 16 0.00 0.00
12:53 am 00:53 Mostly Clear 72 22.2 69 20.6 91 91 Calm 30.16 1021 9 14 0.00 0.00
1:48 am 01:48 Mostly Cloudy 70 21 68 20 94 94 Calm 30.16 1021 9 14 0.00 0.00
1:53 am 01:53 Mostly Cloudy 70 21.1 68 20 93 93 Calm 30.14 1021 9 14 0.00 0.00
2:11 am 02:11 Partly Cloudy 69 20.6 67 19.4 93 93 Calm 30.16 1021 9 14 0.00 0.00
2:53 am 02:53 Clear 70 21.1 67 19.4 90 90 Calm 30.13 1020 8 13 0.00 0.00
3:44 am 03:44 Partly Cloudy with Mist and Fog 70 21.1 67 19.4 90 90 Calm 30.15 1021 4 6 0.00 0.00
3:47 am 03:47 Mostly Cloudy with Mist and Fog 70 21 66 19 88 88 Calm 30.15 1021 2 2 0.00 0.00
3:53 am 03:53 Mostly Cloudy with Fog 70 21.1 68 20 93 93 Calm 30.13 1020 0 0 0.00 0.00
4:53 am 04:53 Mostly Cloudy with Fog 69 20.6 68 20 96 96 Calm 30.12 1020 1 1 0.00 0.00
5:15 am 05:15 Mostly Cloudy with Fog 70 21.1 68 20 93 93 Calm 30.14 1021 0 0 0.00 0.00
5:53 am 05:53 Mostly Cloudy with Fog 70 21.1 69 20.6 97 97 Calm 30.14 1021 0 0 0.00 0.00
6:53 am 06:53 Mostly Cloudy with Fog 70 21.1 68 20 93 93 Calm 30.15 1021 0 0 0.00 0.00
7:53 am 07:53 Mostly Cloudy with Fog 70 21.1 69 20.6 97 97 Calm 30.16 1021 0 0 0.00 0.00
8:53 am 08:53 Mostly Cloudy with Fog 72 22.2 70 21.1 94 94 Calm 30.18 1022 0 0 0.00 0.00
9:13 am 09:13 Mostly Cloudy with Mist and Fog 72 22.2 70 21.1 94 94 Calm 30.19 1022 1 2 0.00 0.00
9:19 am 09:19 Cloudy with Mist and Fog 73 22.8 71 21.7 94 94 Calm 30.18 1022 3 5 0.00 0.00
9:51 am 09:51 Partly Cloudy 75 24 72 22 89 89 Calm 30.19 1022 10 16 0.00 0.00
9:53 am 09:53 Mostly Sunny 77 25 71 21.7 82 82 Calm 30.19 1022 10 16 0.00 0.00
10:53 am 10:53 Sunny 82 27.8 70 21.1 67 67 Calm 30.17 1022 10 16 0.00 0.00
11:53 am 11:53 Sunny 85 29.4 70 21.1 61 61 Calm 30.16 1021 10 16 0.00 0.00
12:53 pm 12:53 Sunny 87 30.6 68 20 53 53 VRB 3 6 30.16 1021 10 16 0.00 0.00
1:53 pm 13:53 Sunny 88 31.1 67 19.4 50 50 VRB 3 6 30.14 1021 10 16 0.00 0.00
2:53 pm 14:53 Mostly Sunny 92 33.3 68 20 46 46 VRB 5 7 30.11 1020 10 16 0.00 0.00
3:53 pm 15:53 Sunny 93 33.9 67 19.4 42 42 VRB 3 6 30.09 1019 10 16 0.00 0.00
4:53 pm 16:53 Sunny 92 33.3 66 18.9 43 43 Calm 30.07 1018 10 16 0.00 0.00
5:53 pm 17:53 Sunny 92 33.3 68 20 46 46 SSW 3 6 30.06 1018 10 16 0.00 0.00
6:53 pm 18:53 Sunny 91 32.8 68 20 47 47 Calm 30.05 1018 10 16 0.00 0.00
7:53 pm 19:53 Sunny 89 31.7 68 20 50 50 Calm 30.06 1018 10 16 0.00 0.00
8:53 pm 20:53 Clear 83 28.3 71 21.7 67 67 S 3 6 30.08 1019 10 16 0.00 0.00
9:53 pm 21:53 Clear 82 27.8 71 21.7 69 69 Calm 30.08 1019 10 16 0.00 0.00
10:53 pm 22:53 Clear 79 26.1 71 21.7 77 77 Calm 30.07 1018 10 16 0.00 0.00
11:53 pm 23:53 Clear 77 25 71 21.7 82 82 Calm 30.07 1018 10 16 0.00 0.00

Powered by AerisWeather